Location: Unspecified
(47.9110°N, 14.3980°E)
Time: 17:32:52
(UTC+00:00)

Cosmos 2237 Rocket - Pass Details

Date: 06 August 2020
Orbit: 836 x 848 km, 71.0° (Epoch: 24 September)

Event Time Altitude Azimuth Distance (km) Brightness Sun altitude
Rises 23:05:36 0° 336° (NNW) 3,413 6.4 -25.7°
Reaches altitude 10° 23:08:23 10° 347° (NNW) 2,473 5.6 -25.7°
Maximum altitude 23:13:20 30° 48° (NE) 1,469 3.8 -25.7°
Enters shadow 23:17:19 14° 103° (ESE) 2,168 4.2 -25.7°
